N7NKE Weather Reports


Display with metric or nautical units.
time (UTC)temp
F
wind
direction
speed
MPH
gust
MPH
rain 1hr
in
rain 24hr
in
rain mn
in
humidity
%
barometer
mb
20260831061004 64 335 3.0 8.0 0.00 0.00 0.00 69 1015.1
20260831060504 64 326 3.0 7.0 0.00 0.00 0.00 69 1015.1
20260831055504 64 325 4.0 8.0 0.00 0.00 0.00 69 1015.2
20260831055004 64 330 3.0 6.0 0.00 0.00 0.00 69 1015.3
20260831054504 64 320 4.0 7.0 0.00 0.00 0.00 69 1015.4
20260831054004 64 324 3.0 7.0 0.00 0.00 0.00 69 1015.3
20260831053503 64 327 5.0 7.0 0.00 0.00 0.00 68 1015.4
20260831053004 64 339 3.0 6.0 0.00 0.00 0.00 68 1015.6
20260831052504 64 326 3.0 7.0 0.00 0.00 0.00 68 1015.6
20260831052004 65 329 3.0 6.0 0.00 0.00 0.00 68 1015.7
20260831051504 65 329 4.0 9.0 0.00 0.00 0.00 67 1015.7
20260831051003 65 338 3.0 7.0 0.00 0.00 0.00 67 1015.7
20260831050503 65 334 3.0 6.0 0.00 0.00 0.00 67 1015.7
20260831050004 65 328 3.0 7.0 0.00 0.00 0.00 67 1015.8
20260831045504 65 331 4.0 6.0 0.00 0.00 0.00 67 1015.8
20260831045004 65 321 2.0 6.0 0.00 0.00 0.00 67 1015.9
20260831044004 65 321 2.0 5.0 0.00 0.00 0.00 66 1015.9
20260831043504 65 337 2.0 3.0 0.00 0.00 0.00 66 1016.0
20260831043003 65 316 3.0 8.0 0.00 0.00 0.00 66 1016.0
20260831042504 65 349 3.0 5.0 0.00 0.00 0.00 66 1016.0
20260831042004 65 330 3.0 5.0 0.00 0.00 0.00 66 1015.9
20260831041504 65 323 3.0 6.0 0.00 0.00 0.00 66 1015.9
20260831041004 65 333 3.0 8.0 0.00 0.00 0.00 66 1015.9
20260831040004 65 334 2.0 5.0 0.00 0.00 0.00 65 1016.0
20260831035504 65 322 3.0 5.0 0.00 0.00 0.00 65 1016.0
20260831035003 65 333 3.0 5.0 0.00 0.00 0.00 65 1016.0
20260831034504 65 333 2.0 3.0 0.00 0.00 0.00 65 1015.9
20260831034004 65 312 2.0 3.0 0.00 0.00 0.00 65 1016.0
20260831033504 65 328 2.0 5.0 0.00 0.00 0.00 65 1016.0
20260831033004 66 336 2.0 3.0 0.00 0.00 0.00 65 1016.0
20260831032504 66 324 2.0 3.0 0.00 0.00 0.00 64 1016.0
20260831032004 66 358 2.0 3.0 0.00 0.00 0.00 64 1016.0
20260831031504 66 324 2.0 3.0 0.00 0.00 0.00 64 1016.0
20260831030504 67 329 3.0 8.0 0.00 0.00 0.00 63 1016.0
20260831025504 67 331 3.0 6.0 0.00 0.00 0.00 62 1016.1
20260831025004 67 344 3.0 6.0 0.00 0.00 0.00 62 1016.1
20260831024504 67 328 4.0 8.0 0.00 0.00 0.00 62 1016.2
20260831024003 68 330 3.0 5.0 0.00 0.00 0.00 61 1016.1
20260831023504 68 333 3.0 7.0 0.00 0.00 0.00 60 1016.2
20260831023004 68 339 3.0 7.0 0.00 0.00 0.00 60 1016.2
20260831022504 68 339 4.0 10.0 0.00 0.00 0.00 60 1016.2
20260831022004 69 339 4.0 9.0 0.00 0.00 0.00 59 1016.3
20260831021504 69 349 6.0 12.0 0.00 0.00 0.00 58 1016.3
20260831021004 69 340 5.0 13.0 0.00 0.00 0.00 58 1016.3
20260831020503 69 336 6.0 9.0 0.00 0.00 0.00 57 1016.3
20260831015503 70 341 6.0 9.0 0.00 0.00 0.00 56 1016.3
20260831015004 70 336 6.0 10.0 0.00 0.00 0.00 56 1016.3
20260831014004 71 334 5.0 12.0 0.00 0.00 0.00 55 1016.4
20260831013504 71 333 6.0 13.0 0.00 0.00 0.00 55 1016.5
20260831013004 71 335 6.0 10.0 0.00 0.00 0.00 54 1016.4
20260831012504 72 347 5.0 10.0 0.00 0.00 0.00 53 1016.5
20260831012004 72 335 6.0 12.0 0.00 0.00 0.00 53 1016.5
20260831011504 72 332 5.0 10.0 0.00 0.00 0.00 52 1016.5
20260831011003 73 329 3.0 9.0 0.00 0.00 0.00 52 1016.5
20260831010005 73 340 6.0 12.0 0.00 0.00 0.00 52 1016.6
20260831005504 73 338 5.0 10.0 0.00 0.00 0.00 51 1016.7
20260831005005 73 340 5.0 9.0 0.00 0.00 0.00 51 1016.7
20260831004505 73 328 3.0 8.0 0.00 0.00 0.00 51 1016.7
20260831004006 73 332 6.0 10.0 0.00 0.00 0.00 50 1016.7
20260831003505 74 344 5.0 8.0 0.00 0.00 0.00 51 1016.7
20260831002505 74 358 5.0 8.0 0.00 0.00 0.00 50 1016.8
20260831002006 74 344 5.0 10.0 0.00 0.00 0.00 50 1016.8
20260831001505 74 350 4.0 9.0 0.00 0.00 0.00 50 1016.7
20260831001005 74 332 3.0 12.0 0.00 0.00 0.00 50 1016.7
20260831000505 74 343 6.0 9.0 0.00 0.00 0.00 49 1016.7
20260831000005 74 329 6.0 12.0 0.00 0.00 0.00 48 1016.7
20260830235505 74 347 3.0 6.0 0.00 0.00 0.00 48 1016.7
20260830235005 74 341 3.0 9.0 0.00 0.00 0.00 48 1016.8
20260830234506 75 325 2.0 9.0 0.00 0.00 0.00 48 1016.8
20260830234005 74 356 3.0 7.0 0.00 0.00 0.00 48 1016.9
20260830233505 74 337 4.0 7.0 0.00 0.00 0.00 48 1016.8
20260830233005 74 354 5.0 10.0 0.00 0.00 0.00 48 1016.9
20260830232505 74 331 5.0 9.0 0.00 0.00 0.00 47 1017.0
20260830231505 75 346 5.0 8.0 0.00 0.00 0.00 47 1017.1
20260830231005 74 21 3.0 6.0 0.00 0.00 0.00 48 1017.1
20260830230505 74 330 4.0 7.0 0.00 0.00 0.00 48 1017.2
20260830230005 74 10 3.0 8.0 0.00 0.00 0.00 47 1017.3
20260830225505 75 337 2.0 5.0 0.00 0.00 0.00 48 1017.5
20260830225005 74 340 3.0 8.0 0.00 0.00 0.00 48 1017.5
20260830223505 74 10 2.0 5.0 0.00 0.00 0.00 48 1017.6
20260830223005 73 20 2.0 7.0 0.00 0.00 0.00 48 1017.7
20260830222505 73 333 4.0 9.0 0.00 0.00 0.00 48 1017.9
20260830222005 74 351 5.0 9.0 0.00 0.00 0.00 47 1018.0
20260830221505 74 345 3.0 8.0 0.00 0.00 0.00 47 1018.0
20260830221005 73 325 3.0 7.0 0.00 0.00 0.00 48 1018.0
20260830220505 73 326 3.0 8.0 0.00 0.00 0.00 48 1018.1
20260830215505 74 30 3.0 8.0 0.00 0.00 0.00 47 1018.2
20260830215005 74 6 3.0 6.0 0.00 0.00 0.00 48 1018.3
20260830214005 72 327 2.0 8.0 0.00 0.00 0.00 49 1018.4
20260830213504 72 330 5.0 8.0 0.00 0.00 0.00 48 1018.4
20260830213005 73 326 3.0 8.0 0.00 0.00 0.00 48 1018.5
20260830212006 73 333 3.0 8.0 0.00 0.00 0.00 48 1018.7
20260830211006 72 12 2.0 7.0 0.00 0.00 0.00 49 1018.8
20260830210005 73 304 3.0 6.0 0.00 0.00 0.00 48 1018.8
20260830205505 71 319 2.0 7.0 0.00 0.00 0.00 49 1018.8
20260830205005 71 2 2.0 8.0 0.00 0.00 0.00 50 1018.9
20260830204005 71 322 3.0 5.0 0.00 0.00 0.00 49 1019.1
20260830203005 71 313 3.0 8.0 0.00 0.00 0.00 50 1019.0
20260830202504 70 273 4.0 8.0 0.00 0.00 0.00 50 1019.0
20260830202005 71 352 3.0 6.0 0.00 0.00 0.00 49 1019.1
20260830201505 71 44 5.0 9.0 0.00 0.00 0.00 49 1019.3
20260830200505 71 2 2.0 5.0 0.00 0.00 0.00 50 1019.3
20260830200005 70 44 2.0 6.0 0.00 0.00 0.00 51 1019.3
20260830195505 69 340 2.0 6.0 0.00 0.00 0.00 51 1019.4
20260830195005 69 32 2.0 5.0 0.00 0.00 0.00 52 1019.4
20260830193505 68 324 3.0 7.0 0.00 0.00 0.00 52 1019.6
20260830193005 68 344 3.0 7.0 0.00 0.00 0.00 54 1019.7
20260830192005 68 31 1.0 5.0 0.00 0.00 0.00 55 1019.9
20260830191505 68 357 2.0 8.0 0.00 0.00 0.00 55 1019.9
20260830191006 68 107 3.0 7.0 0.00 0.00 0.00 54 1019.9
20260830190505 68 30 5.0 8.0 0.00 0.00 0.00 55 1020.0
20260830190004 68 58 4.0 8.0 0.00 0.00 0.00 56 1020.0
20260830185005 67 0 1.0 8.0 0.00 0.00 0.00 56 1020.1
20260830184505 68 54 5.0 9.0 0.00 0.00 0.00 56 1020.1
20260830184005 67 9 2.0 7.0 0.00 0.00 0.00 58 1020.2
20260830183005 68 45 2.0 6.0 0.00 0.00 0.00 58 1020.2
20260830182505 67 135 2.0 6.0 0.00 0.00 0.00 58 1020.3
20260830182005 66 70 4.0 10.0 0.00 0.00 0.00 60 1020.3
20260830181505 66 3 2.0 5.0 0.00 0.00 0.00 61 1020.3
20260830181005 65 99 3.0 8.0 0.00 0.00 0.00 60 1020.2
20260830180504 65 59 3.0 7.0 0.00 0.00 0.00 61 1020.2
20260830180005 66 28 3.0 5.0 0.00 0.00 0.00 60 1020.3
20260830175505 65 357 3.0 5.0 0.00 0.00 0.00 60 1020.4
20260830175004 65 11 2.0 6.0 0.00 0.00 0.00 61 1020.4
20260830174505 65 336 2.0 3.0 0.00 0.00 0.00 61 1020.3
20260830174005 65 344 2.0 3.0 0.00 0.00 0.00 64 1020.3
20260830173505 65 355 4.0 6.0 0.00 0.00 0.00 64 1020.3
20260830173005 64 356 2.0 2.0 0.00 0.00 0.00 65 1020.3
20260830172005 65 37 2.0 6.0 0.00 0.00 0.00 65 1020.3
20260830171504 64 86 3.0 7.0 0.00 0.00 0.00 66 1020.3
20260830171005 63 352 2.0 3.0 0.00 0.00 0.00 68 1020.4
20260830170505 63 101 1.0 2.0 0.00 0.00 0.00 68 1020.5
20260830170005 63 76 3.0 5.0 0.00 0.00 0.00 68 1020.5
20260830165005 62 91 2.0 2.0 0.00 0.00 0.00 70 1020.5
20260830164005 61 131 1.0 2.0 0.00 0.00 0.00 73 1020.6
20260830163505 60 36 1.0 2.0 0.00 0.00 0.00 74 1020.7
20260830163005 60 165 1.0 2.0 0.00 0.00 0.00 74 1020.7
20260830162505 60 150 1.0 2.0 0.00 0.00 0.00 75 1020.6
20260830161505 59 126 1.0 3.0 0.00 0.00 0.00 76 1020.7
20260830160505 58 93 2.0 3.0 0.00 0.00 0.00 77 1020.7
20260830160005 57 111 1.0 3.0 0.00 0.00 0.00 79 1020.8
20260830155505 57 121 1.0 2.0 0.00 0.00 0.00 79 1020.9
20260830155005 56 108 1.0 2.0 0.00 0.00 0.00 81 1021.0
20260830154505 55 32 1.0 2.0 0.00 0.00 0.00 82 1021.0
20260830153505 54 72 0.0 2.0 0.00 0.00 0.00 84 1021.1
20260830153005 54 86 0.0 2.0 0.00 0.00 0.00 85 1021.0
20260830152504 53 110 1.0 2.0 0.00 0.00 0.00 86 1021.0
20260830152005 53 96 1.0 2.0 0.00 0.00 0.00 87 1021.1
20260830151505 52 44 0.0 2.0 0.00 0.00 0.00 87 1020.9
20260830151005 51 41 1.0 2.0 0.00 0.00 0.00 88 1021.0
20260830150505 51 66 1.0 2.0 0.00 0.00 0.00 89 1021.0
20260830150005 50 146 1.0 2.0 0.00 0.00 0.00 90 1021.0
20260830145506 50 155 0.0 0.0 0.00 0.00 0.00 90 1021.0
20260830144505 49 155 1.0 2.0 0.00 0.00 0.00 90 1021.1
20260830144005 49 157 0.0 1.0 0.00 0.00 0.00 90 1021.1
20260830143504 49 155 0.0 2.0 0.00 0.00 0.00 90 1021.1
20260830142504 48 155 0.0 2.0 0.00 0.00 0.00 90 1021.0
20260830142005 47 167 0.0 0.0 0.00 0.00 0.00 90 1021.0
20260830141505 47 167 0.0 0.0 0.00 0.00 0.00 90 1020.9
20260830141005 47 167 1.0 3.0 0.00 0.00 0.00 90 1020.9
20260830140505 46 167 0.0 1.0 0.00 0.00 0.00 89 1021.0
20260830140005 46 167 0.0 0.0 0.00 0.00 0.00 89 1021.1
20260830135505 46 167 0.0 0.0 0.00 0.00 0.00 89 1021.1
20260830135005 46 167 0.0 1.0 0.00 0.00 0.00 89 1021.0
20260830134505 46 167 0.0 3.0 0.00 0.00 0.00 89 1020.9
20260830134005 46 166 0.0 0.0 0.00 0.00 0.00 89 1020.9
20260830133505 46 166 0.0 0.0 0.00 0.00 0.00 89 1020.9
20260830132504 47 166 0.0 0.0 0.00 0.00 0.00 89 1020.8
20260830132005 47 166 1.0 3.0 0.00 0.00 0.00 89 1020.8
20260830131505 47 181 0.0 2.0 0.00 0.00 0.00 89 1020.7
20260830131005 47 180 2.0 2.0 0.00 0.00 0.00 89 1020.6
20260830130505 47 208 1.0 2.0 0.00 0.00 0.00 89 1020.6
20260830130005 47 217 1.0 2.0 0.00 0.00 0.00 89 1020.6
20260830125504 47 217 0.0 2.0 0.00 0.00 0.00 89 1020.7
20260830125004 47 217 0.0 0.0 0.00 0.00 0.00 89 1020.7
20260830123505 48 217 0.0 1.0 0.00 0.00 0.00 88 1020.7
20260830122505 48 217 0.0 0.0 0.00 0.00 0.00 88 1020.5
20260830122005 48 217 0.0 0.0 0.00 0.00 0.00 88 1020.5
20260830121005 49 217 0.0 1.0 0.00 0.00 0.00 89 1020.5
20260830120505 49 217 0.0 2.0 0.00 0.00 0.00 89 1020.5
20260830115504 49 217 0.0 0.0 0.00 0.00 0.00 89 1020.4
20260830115004 48 217 0.0 0.0 0.00 0.00 0.00 88 1020.4
20260830114505 48 217 0.0 1.0 0.00 0.00 0.00 88 1020.4
20260830114005 49 217 0.0 1.0 0.00 0.00 0.00 88 1020.5
20260830113504 49 217 1.0 1.0 0.00 0.00 0.00 88 1020.4
20260830113004 49 217 1.0 2.0 0.00 0.00 0.00 88 1020.4
20260830112505 49 178 1.0 1.0 0.00 0.00 0.00 88 1020.5
20260830112005 49 178 1.0 2.0 0.00 0.00 0.00 88 1020.5
20260830111505 49 158 1.0 2.0 0.00 0.00 0.00 88 1020.6
20260830111005 49 183 1.0 2.0 0.00 0.00 0.00 88 1020.6
20260830110505 49 199 1.0 2.0 0.00 0.00 0.00 87 1020.5
20260830110005 49 199 1.0 1.0 0.00 0.00 0.00 87 1020.5
20260830105505 49 199 0.0 1.0 0.00 0.00 0.00 87 1020.5
20260830105005 49 199 0.0 2.0 0.00 0.00 0.00 87 1020.4
20260830104005 50 244 0.0 2.0 0.00 0.00 0.00 87 1020.4
20260830103505 50 244 0.0 2.0 0.00 0.00 0.00 87 1020.4
20260830103005 50 244 0.0 2.0 0.00 0.00 0.00 86 1020.4
20260830102504 50 244 0.0 2.0 0.00 0.00 0.00 87 1020.3
20260830102005 50 234 1.0 2.0 0.00 0.00 0.00 87 1020.2
20260830101505 50 234 2.0 2.0 0.00 0.00 0.00 87 1020.3
20260830101005 51 234 1.0 2.0 0.00 0.00 0.00 87 1020.2
20260830100504 51 234 2.0 2.0 0.00 0.00 0.00 87 1020.3
20260830095505 51 232 2.0 2.0 0.00 0.00 0.00 86 1020.4
20260830095005 51 232 2.0 2.0 0.00 0.00 0.00 86 1020.3
20260830094504 51 235 2.0 2.0 0.00 0.00 0.00 86 1020.4
20260830092005 51 232 1.0 2.0 0.00 0.00 0.00 86 1020.2
20260830091505 51 236 2.0 3.0 0.00 0.00 0.00 86 1020.3
20260830091004 51 236 1.0 2.0 0.00 0.00 0.00 86 1020.3
20260830090504 51 236 2.0 2.0 0.00 0.00 0.00 86 1020.3
20260830090005 51 238 1.0 2.0 0.00 0.00 0.00 85 1020.4
20260830085505 51 238 0.0 0.0 0.00 0.00 0.00 85 1020.4
20260830085004 51 238 0.0 0.0 0.00 0.00 0.00 85 1020.4
20260830084504 51 238 0.0 0.0 0.00 0.00 0.00 85 1020.4
20260830084005 51 238 0.0 0.0 0.00 0.00 0.00 85 1020.4
20260830083504 51 238 0.0 0.0 0.00 0.00 0.00 84 1020.5
20260830083005 52 238 0.0 0.0 0.00 0.00 0.00 84 1020.6
20260830082005 52 238 0.0 0.0 0.00 0.00 0.00 84 1020.5
20260830081504 52 238 0.0 0.0 0.00 0.00 0.00 83 1020.5
20260830081005 52 238 0.0 0.0 0.00 0.00 0.00 83 1020.5
20260830080504 52 238 0.0 0.0 0.00 0.00 0.00 83 1020.4
20260830080004 52 238 0.0 0.0 0.00 0.00 0.00 83 1020.4
20260830075504 52 238 0.0 0.0 0.00 0.00 0.00 82 1020.4
20260830075004 52 238 0.0 0.0 0.00 0.00 0.00 82 1020.4
20260830074505 52 238 0.0 0.0 0.00 0.00 0.00 82 1020.3
20260830074004 53 238 0.0 0.0 0.00 0.00 0.00 82 1020.4
20260830073504 53 238 0.0 0.0 0.00 0.00 0.00 81 1020.3
20260830073005 53 238 0.0 0.0 0.00 0.00 0.00 81 1020.4
20260830072504 53 238 0.0 0.0 0.00 0.00 0.00 80 1020.4
20260830072004 53 238 0.0 0.0 0.00 0.00 0.00 80 1020.3
20260830071504 53 238 0.0 0.0 0.00 0.00 0.00 79 1020.4
20260830071005 54 238 0.0 0.0 0.00 0.00 0.00 80 1020.4
20260830070504 54 238 0.0 0.0 0.00 0.00 0.00 80 1020.3
20260830070005 54 238 0.0 0.0 0.00 0.00 0.00 80 1020.3
20260830065505 54 238 0.0 0.0 0.00 0.00 0.00 80 1020.3
20260830065005 54 238 0.0 0.0 0.00 0.00 0.00 80 1020.3
20260830064504 54 238 0.0 0.0 0.00 0.00 0.00 78 1020.3
20260830063505 54 238 0.0 0.0 0.00 0.00 0.00 77 1020.2
20260830063005 55 238 0.0 0.0 0.00 0.00 0.00 76 1020.2
20260830062504 55 238 0.0 0.0 0.00 0.00 0.00 76 1020.2
20260830062004 55 238 0.0 0.0 0.00 0.00 0.00 76 1020.2